Location: Caserta
(41.0667°N, 14.3333°E)
Time: 15:19:25
(UTC+00:00)

Daily predictions for brighter satellites

Satellite Brightness Start Highest point End
(mag) Time Altitude Azimuth Time Altitude Azimuth Time Altitude Azimuth
Lacrosse 5 rocket 3.2 15:58:22 10° N 16:00:27 14° NNE 16:02:36 10° ENE
Cosmos 1092 Rocket 4.1 15:58:32 10° N 16:04:51 61° E 16:11:04 10° SSE
USA 276 3.7 16:02:02 10° WNW 16:04:58 38° SW 16:07:53 10° SSE
COSMOS 2455 2.9 15:59:41 10° SSW 16:05:39 73° ESE 16:11:41 10° NNE
Cosmos 1666 4.1 16:03:31 10° NNE 16:06:01 17° ENE 16:08:30 10° ESE
Cosmos 1814 Rocket 4.4 16:09:20 10° S 16:14:16 43° ESE 16:19:10 10° NNE
Cosmos 2322 Rocket 3.9 16:14:00 10° NNE 16:16:12 12° NE 16:18:22 10° ENE
Cosmos 1697 Rocket 2.8 16:10:54 10° NNW 16:16:33 88° WSW 16:22:09 10° SSE
PSLV R/B 4.4 16:13:51 10° SE 16:17:08 31° ENE 16:20:28 10° N
CZ-4C R/B 3.3 16:11:18 10° NNW 16:18:14 45° NE 16:26:13 10° ESE
Cosmos 921 Rocket 4.5 16:15:40 10° SE 16:18:28 18° E 16:21:05 11° NE
NOAA 12 4.3 16:14:02 10° SSE 16:19:21 81° WSW 16:24:42 10° NNW
Cosmos 1980 Rocket 2.3 16:16:15 10° NNW 16:21:49 53° ENE 16:27:16 10° SE
Meteor 2-21 4.4 16:17:04 10° N 16:23:06 63° E 16:29:04 10° SSE
Meteor PRIRODA 4.5 16:19:55 10° S 16:23:28 54° W 16:27:03 10° NNW
ATLAS CENTAUR R/B 3.8 16:13:03 10° WSW 16:24:04 54° NW 16:28:35 10° NNE
Cosmos 1933 3.9 16:21:56 10° SSW 16:25:56 62° W 16:29:56 10° N
COSMO-SKYMED 1 3.6 16:23:30 10° NE 16:27:09 26° E 16:30:46 10° SSE
Cosmos 2279 Rocket 4.2 16:21:38 10° SSE 16:27:32 48° E 16:33:27 10° NNE
Cosmos 1898 Rocket 4.1 16:22:30 10° NNW 16:27:41 63° WSW 16:32:46 10° S
Cosmos 1627 Rocket 4.4 16:21:36 10° N 16:27:46 78° E 16:33:52 10° S
FengYun 1-2 T 4.4 16:22:18 10° SSE 16:27:54 84° WSW 16:33:28 10° NNW
Cosmos 2369 3.7 16:22:51 10° NNW 16:28:37 77° ENE 16:34:19 10° SSE
CZ-4B R/B 3.7 16:24:41 10° S 16:28:38 53° W 16:32:25 10° NNW
Cosmos 1812 2.9 16:25:50 10° SSE 16:29:33 49° E 16:33:16 10° NNE
CORIOLIS 4.1 16:24:14 10° SSE 16:29:36 73° ENE 16:35:01 10° N
Cosmos 1633 Rocket 3.7 16:27:25 10° N 16:31:25 34° ENE 16:35:24 10° SE
NOSS 2-2 (C) 4.5 16:28:03 10° NNW 16:33:30 70° NE 16:41:09 10° SE
AQUARIUS 4.1 16:29:44 10° SSE 16:34:12 79° ENE 16:38:43 10° N
Cosmos 1818 4.4 16:29:36 10° NNW 16:34:25 30° NE 16:39:12 10° ESE
Cosmos 1151 Rocket 3.2 16:30:32 10° S 16:34:43 52° E 16:38:57 10° NNE
SL-16 R/B 3.4 16:31:36 10° N 16:35:51 21° NE 16:39:04 14° E
Cosmos 2082 Rocket 2.3 16:30:20 10° SSW 16:36:02 84° WNW 16:41:44 10° NNE
CZ-2C R/B 3.1 16:33:39 10° SW 16:37:05 23° SSE 16:40:15 11° ESE
USA 267 3.7 16:32:17 10° NE 16:38:40 58° NW 16:45:02 10° WSW
SMAP 3.2 16:34:24 10° S 16:39:03 78° W 16:43:43 10° NNW
Meteor 2-14 Rocket 4.5 16:38:13 10° N 16:44:21 87° W 16:50:24 10° S
ARGOS 3.6 16:40:41 10° SE 16:45:37 37° ENE 16:50:33 10° N
MOS 1-B 4.3 16:39:58 10° SSE 16:45:39 63° ENE 16:51:22 10° N
Meteor 1-14 Rocket 4.3 16:40:05 10° N 16:45:55 64° E 16:51:49 10° SSE
Cosmos 1634 Rocket 4.3 16:40:50 10° SSW 16:47:08 75° W 16:53:29 10° N
CZ-4B DEB 4.2 16:43:25 10° SSE 16:48:56 89° WSW 16:54:27 10° NNW
Landsat 5 4.2 16:48:37 21° NE 16:50:23 29° E 16:53:51 10° SSE
Cosmos 2208 Rocket 4.1 16:46:24 10° S 16:51:43 67° ESE 16:57:08 10° NNE
Cosmos 2278 3.6 16:46:12 10° NNW 16:51:54 66° ENE 16:57:31 10° SSE
Cosmos 2026 Rocket 4.3 16:46:17 10° NNW 16:52:22 70° W 16:58:22 10° S
Cosmos 1833 Rocket 4.4 16:49:16 10° WSW 16:54:05 29° NW 16:58:57 10° N
Cosmos 841 Rocket 4.4 16:50:05 10° SW 16:55:03 47° WNW 17:00:01 10° N
Okean O Rocket 2.0 16:51:34 10° SE 16:55:42 40° ENE 16:59:53 10° N
Cosmos 44 Rocket 3.7 16:51:58 10° NNW 16:56:34 39° NE 16:59:24 20° ESE
X-37B 1.5 16:55:31 10° SSW 16:58:03 29° SSE 16:58:29 28° SE
Cosmos 1328 Rocket 3.5 16:53:59 10° S 16:58:23 68° E 17:02:48 10° NNE
Cosmos 1666 Rocket 3.5 16:54:41 10° N 16:59:09 86° E 17:03:31 10° S
H-2A R/B 1.9 16:54:02 10° SSE 16:59:12 81° ENE 17:04:16 10° N
MOS 1-B Rocket 4.1 16:53:49 10° NNE 16:59:55 83° ESE 17:06:58 10° SSW
Cosmos 1470 Rocket 3.9 16:58:16 10° N 17:02:33 43° ENE 17:06:49 10° SSE
Meteor 2-8 Rocket 4.4 16:59:46 10° S 17:05:52 74° E 17:12:02 10° NNE
ISS -3.8 17:03:32 10° NW 17:06:57 87° SSW 17:08:21 33° SE
CZ-2C R/B 2.4 17:04:20 10° NNE 17:09:31 76° ESE 17:14:41 10° S
USA 234 3.2 17:04:00 10° SE 17:10:32 81° NE 17:17:06 10° NW
Cosmos 1125 Rocket 3.9 17:05:54 10° N 17:10:49 39° ENE 17:14:05 19° ESE
Meteor 1-27 Rocket 4.1 17:07:26 10° SSE 17:12:26 37° E 17:14:11 30° NE
SKYMED 2 3.5 17:11:18 12° NNE 17:15:22 88° E 17:19:42 10° SSW
CZ-2D R/B 4.2 17:12:19 10° S 17:16:02 50° W 17:19:46 10° NNW
CZ-4B R/B 3.1 17:12:44 10° SSE 17:18:10 87° ENE 17:23:32 10° NNW
Meteor 2-6 Rocket 4.3 17:15:19 10° SSW 17:21:04 80° W 17:26:43 10° N
Cosmos 1655 Rocket 4.0 17:14:47 10° N 17:21:09 64° E 17:27:25 10° SSE
SJ-11-01 4.2 17:17:48 10° SSE 17:22:33 81° ENE 17:27:18 10° N
APEX 2.8 17:19:07 10° SSW 17:23:09 76° ESE 17:23:25 71° ENE
ATLAS 5 CENTAUR R/B 3.2 17:22:48 10° NNW 17:26:27 26° N 17:26:27 26° N
deb Chang Zheng 4 3.6 17:24:06 10° S 17:28:24 77° WSW 17:32:43 10° NNW
Cosmos 2360 Rocket 3.7 17:34:57 10° N 17:37:21 21° NNE 17:37:21 21° NNE
Lacrosse 5 rocket 1.9 17:36:15 10° NW 17:39:13 45° NNW 17:39:13 45° NNW
Cosmos 1515 Rocket 3.7 17:38:36 10° SSW 17:43:02 73° W 17:44:48 36° N
Meteor 1-11 Rocket 3.7 17:49:01 10° N 17:54:41 85° W 18:00:28 10° S
Tiangong 4.1 17:52:40 10° SSW 17:52:54 11° SSW 17:52:54 11° SSW
Cosmos 921 Rocket 4.4 17:52:33 10° SW 17:56:25 36° WNW 17:57:55 27° NNW
SL-08 RB Rocket 4.1 17:53:07 10° S 17:57:43 64° W 18:02:18 10° NNW
Cosmos 2322 Rocket 2.4 17:55:39 10° NNW 18:00:16 55° N 18:00:16 55° N
COSMO-SKYMED 1 4.5 17:59:54 12° NNW 18:03:15 28° WNW 18:06:55 10° SW
Cosmos 2298 Rocket 4.5 17:59:11 10° NNW 18:04:26 60° WSW 18:09:39 10° S
CZ-4C R/B 3.9 17:59:45 10° NW 18:07:04 51° WSW 18:15:17 10° S
DMSP B5D2-2 4.2 18:14:59 69° W 18:14:59 69° W 18:20:05 10° SSW
CZ-2C R/B 3.3 18:12:18 10° WSW 18:14:25 24° SW 18:14:25 24° SW
Aureole 3 Rocket 4.0 18:12:51 10° SSW 18:16:26 52° WSW 18:16:26 52° WSW
SL-16 R/B 2.5 18:14:49 10° NNW 18:20:25 63° WSW 18:21:04 58° SW
Okean O Rocket 4.2 18:29:03 10° SW 18:32:12 19° W 18:35:22 10° NW
